Year,Month,Day,Hour,Minute,Value (Times are PST for windspeed in km/hr)
2018,04,11,00,00,0.50
2018,04,11,00,01,1.90
2018,04,11,00,02,1.80
2018,04,11,00,03,4.10
2018,04,11,00,04,2.90
2018,04,11,00,05,5.60
2018,04,11,00,06,3.60
2018,04,11,00,07,2.80
2018,04,11,00,08,2.70
2018,04,11,00,09,4.40
2018,04,11,00,10,3.80
2018,04,11,00,11,3.30
2018,04,11,00,12,1.70
2018,04,11,00,13,0.10
2018,04,11,00,14,0.00
2018,04,11,00,15,0.20
2018,04,11,00,16,1.70
2018,04,11,00,17,2.50
2018,04,11,00,18,2.40
2018,04,11,00,19,4.30
2018,04,11,00,20,5.30
2018,04,11,00,21,4.50
2018,04,11,00,22,2.60
2018,04,11,00,23,4.50
2018,04,11,00,24,2.90
2018,04,11,00,25,3.80
2018,04,11,00,26,4.30
2018,04,11,00,27,6.40
2018,04,11,00,28,0.80
2018,04,11,00,29,2.60
2018,04,11,00,30,2.90
2018,04,11,00,31,4.40
2018,04,11,00,32,3.40
2018,04,11,00,33,3.80
2018,04,11,00,34,5.00
2018,04,11,00,35,3.90
2018,04,11,00,36,4.00
2018,04,11,00,37,3.80
2018,04,11,00,38,3.70
2018,04,11,00,39,7.40
2018,04,11,00,40,6.10
2018,04,11,00,41,6.90
2018,04,11,00,42,4.60
2018,04,11,00,43,7.20
2018,04,11,00,44,5.40
2018,04,11,00,45,4.40
2018,04,11,00,46,5.40
2018,04,11,00,47,5.20
2018,04,11,00,48,3.50
2018,04,11,00,49,2.30
2018,04,11,00,50,5.10
2018,04,11,00,51,4.00
2018,04,11,00,52,3.10
2018,04,11,00,53,6.90
2018,04,11,00,54,6.40
2018,04,11,00,55,7.60
2018,04,11,00,56,4.00
2018,04,11,00,57,2.90
2018,04,11,00,58,2.00
2018,04,11,00,59,4.80
2018,04,11,01,00,3.50
2018,04,11,01,01,2.60
2018,04,11,01,02,3.40
2018,04,11,01,03,3.00
2018,04,11,01,04,3.30
2018,04,11,01,05,3.30
2018,04,11,01,06,4.60
2018,04,11,01,07,1.90
2018,04,11,01,08,2.20
2018,04,11,01,09,2.30
2018,04,11,01,10,1.00
2018,04,11,01,11,2.30
2018,04,11,01,12,0.00
2018,04,11,01,13,0.00
2018,04,11,01,14,0.40
2018,04,11,01,15,0.00
2018,04,11,01,16,0.00
2018,04,11,01,17,0.10
2018,04,11,01,18,2.30
2018,04,11,01,19,1.40
2018,04,11,01,20,1.30
2018,04,11,01,21,0.00
2018,04,11,01,22,0.00
2018,04,11,01,23,0.00
2018,04,11,01,24,0.30
2018,04,11,01,25,1.70
2018,04,11,01,26,0.80
2018,04,11,01,27,0.10
2018,04,11,01,28,0.00
2018,04,11,01,29,0.00
2018,04,11,01,30,0.00
2018,04,11,01,31,0.00
2018,04,11,01,32,0.00
2018,04,11,01,33,0.00
2018,04,11,01,34,0.00
2018,04,11,01,35,0.00
2018,04,11,01,36,0.00
2018,04,11,01,37,0.00
2018,04,11,01,38,0.00
2018,04,11,01,39,0.00
2018,04,11,01,40,0.10
2018,04,11,01,41,0.00
2018,04,11,01,42,0.00
2018,04,11,01,43,0.00
2018,04,11,01,44,0.00
2018,04,11,01,45,0.00
2018,04,11,01,46,0.00
2018,04,11,01,47,0.00
2018,04,11,01,48,0.00
2018,04,11,01,49,0.00
2018,04,11,01,50,0.00
2018,04,11,01,51,0.00
2018,04,11,01,52,0.00
2018,04,11,01,53,0.00
2018,04,11,01,54,0.00
2018,04,11,01,55,0.00
2018,04,11,01,56,0.00
2018,04,11,01,57,0.00
2018,04,11,01,58,0.00
2018,04,11,01,59,0.00
2018,04,11,02,00,0.00
2018,04,11,02,01,0.00
2018,04,11,02,02,0.00
2018,04,11,02,03,0.00
2018,04,11,02,04,0.00
2018,04,11,02,05,0.00
2018,04,11,02,06,0.40
2018,04,11,02,07,0.10
2018,04,11,02,08,0.00
2018,04,11,02,09,0.00
2018,04,11,02,10,0.00
2018,04,11,02,11,0.00
2018,04,11,02,12,0.00
2018,04,11,02,13,0.00
2018,04,11,02,14,0.00
2018,04,11,02,15,0.00
2018,04,11,02,16,0.10
2018,04,11,02,17,2.70
2018,04,11,02,18,1.20
2018,04,11,02,19,1.70
2018,04,11,02,20,2.00
2018,04,11,02,21,1.00
2018,04,11,02,22,1.20
2018,04,11,02,23,1.40
2018,04,11,02,24,1.10
2018,04,11,02,25,4.10
2018,04,11,02,26,6.10
2018,04,11,02,27,9.10
2018,04,11,02,28,9.00
2018,04,11,02,29,7.40
2018,04,11,02,30,8.40
2018,04,11,02,31,6.60
2018,04,11,02,32,7.00
2018,04,11,02,33,7.70
2018,04,11,02,34,6.30
2018,04,11,02,35,5.70
2018,04,11,02,36,5.50
2018,04,11,02,37,6.60
2018,04,11,02,38,6.40
2018,04,11,02,39,3.70
2018,04,11,02,40,6.20
2018,04,11,02,41,5.50
2018,04,11,02,42,1.50
2018,04,11,02,43,2.70
2018,04,11,02,44,2.30
2018,04,11,02,45,4.70
2018,04,11,02,46,1.80
2018,04,11,02,47,1.80
2018,04,11,02,48,4.80
2018,04,11,02,49,3.60
2018,04,11,02,50,2.60
2018,04,11,02,51,3.00
2018,04,11,02,52,3.60
2018,04,11,02,53,1.40
2018,04,11,02,54,3.20
2018,04,11,02,55,4.80
2018,04,11,02,56,5.10
2018,04,11,02,57,3.40
2018,04,11,02,58,5.40
2018,04,11,02,59,5.80
2018,04,11,03,00,5.30
2018,04,11,03,01,2.90
2018,04,11,03,02,2.30
2018,04,11,03,03,2.80
2018,04,11,03,04,2.60
2018,04,11,03,05,1.00
2018,04,11,03,06,1.00
2018,04,11,03,07,3.10
2018,04,11,03,08,0.80
2018,04,11,03,09,1.20
2018,04,11,03,10,2.60
2018,04,11,03,11,1.90
2018,04,11,03,12,3.00
2018,04,11,03,13,2.60
2018,04,11,03,14,1.60
2018,04,11,03,15,2.60
2018,04,11,03,16,3.20
2018,04,11,03,17,3.90
2018,04,11,03,18,5.90
2018,04,11,03,19,4.20
2018,04,11,03,20,6.40
2018,04,11,03,21,5.40
2018,04,11,03,22,5.50
2018,04,11,03,23,4.40
2018,04,11,03,24,4.30
2018,04,11,03,25,3.30
2018,04,11,03,26,2.80
2018,04,11,03,27,2.00
2018,04,11,03,28,2.40
2018,04,11,03,29,0.80
2018,04,11,03,30,0.00
2018,04,11,03,31,0.00
2018,04,11,03,32,1.40
2018,04,11,03,33,2.40
2018,04,11,03,34,1.20
2018,04,11,03,35,0.60
2018,04,11,03,36,0.90
2018,04,11,03,37,1.80
2018,04,11,03,38,2.30
2018,04,11,03,39,3.50
2018,04,11,03,40,3.10
2018,04,11,03,41,1.80
2018,04,11,03,42,2.20
2018,04,11,03,43,3.20
2018,04,11,03,44,2.30
2018,04,11,03,45,0.70
2018,04,11,03,46,0.00
2018,04,11,03,47,0.30
2018,04,11,03,48,0.10
2018,04,11,03,49,2.40
2018,04,11,03,50,3.70
2018,04,11,03,51,2.10
2018,04,11,03,52,0.80
2018,04,11,03,53,1.80
2018,04,11,03,54,2.60
2018,04,11,03,55,1.10
2018,04,11,03,56,0.50
2018,04,11,03,57,2.10
2018,04,11,03,58,3.00
2018,04,11,03,59,1.50
2018,04,11,04,00,0.10
2018,04,11,04,01,0.10
2018,04,11,04,02,0.80
2018,04,11,04,03,0.10
2018,04,11,04,04,0.00
2018,04,11,04,05,1.40
2018,04,11,04,06,2.50
2018,04,11,04,07,3.60
2018,04,11,04,08,3.90
2018,04,11,04,09,3.90
2018,04,11,04,10,3.10
2018,04,11,04,11,4.50
2018,04,11,04,12,4.80
2018,04,11,04,13,5.70
2018,04,11,04,14,5.60
2018,04,11,04,15,4.10
2018,04,11,04,16,4.10
2018,04,11,04,17,3.50
2018,04,11,04,18,5.10
2018,04,11,04,19,5.40
2018,04,11,04,20,6.60
2018,04,11,04,21,3.40
2018,04,11,04,22,3.90
2018,04,11,04,23,3.60
2018,04,11,04,24,3.20
2018,04,11,04,25,2.40
2018,04,11,04,26,1.90
2018,04,11,04,27,4.30
2018,04,11,04,28,4.20
2018,04,11,04,29,2.40
2018,04,11,04,30,2.90
2018,04,11,04,31,2.90
2018,04,11,04,32,3.20
2018,04,11,04,33,3.20
2018,04,11,04,34,3.00
2018,04,11,04,35,3.30
2018,04,11,04,36,4.20
2018,04,11,04,37,2.00
2018,04,11,04,38,3.50
2018,04,11,04,39,3.20
2018,04,11,04,40,2.90
2018,04,11,04,41,2.20
2018,04,11,04,42,4.90
2018,04,11,04,43,6.00
2018,04,11,04,44,7.30
2018,04,11,04,45,6.90
2018,04,11,04,46,2.90
2018,04,11,04,47,1.70
2018,04,11,04,48,3.60
2018,04,11,04,49,1.00
2018,04,11,04,50,0.00
2018,04,11,04,51,0.00
2018,04,11,04,52,0.60
2018,04,11,04,53,0.00
2018,04,11,04,54,0.00
2018,04,11,04,55,0.00
2018,04,11,04,56,1.20
2018,04,11,04,57,2.50
2018,04,11,04,58,1.10
2018,04,11,04,59,0.10
2018,04,11,05,00,1.60
2018,04,11,05,01,0.20
2018,04,11,05,02,1.80
2018,04,11,05,03,0.00
2018,04,11,05,04,0.50
2018,04,11,05,05,0.90
2018,04,11,05,06,1.50
2018,04,11,05,07,1.10
2018,04,11,05,08,3.80
2018,04,11,05,09,3.60
2018,04,11,05,10,4.60
2018,04,11,05,11,4.20
2018,04,11,05,12,5.50
2018,04,11,05,13,3.00
2018,04,11,05,14,2.20
2018,04,11,05,15,3.50
2018,04,11,05,16,5.30
2018,04,11,05,17,5.90
2018,04,11,05,18,5.30
2018,04,11,05,19,5.90
2018,04,11,05,20,5.00
2018,04,11,05,21,6.60
2018,04,11,05,22,6.30
2018,04,11,05,23,4.70
2018,04,11,05,24,6.90
2018,04,11,05,25,5.80
2018,04,11,05,26,5.00
2018,04,11,05,27,7.80
2018,04,11,05,28,6.70
2018,04,11,05,29,8.60
2018,04,11,05,30,6.30
2018,04,11,05,31,6.40
2018,04,11,05,32,5.00
2018,04,11,05,33,5.50
2018,04,11,05,34,9.20
2018,04,11,05,35,7.90
2018,04,11,05,36,5.40
2018,04,11,05,37,5.50
2018,04,11,05,38,5.30
2018,04,11,05,39,5.20
2018,04,11,05,40,5.70
2018,04,11,05,41,4.80
2018,04,11,05,42,6.30
2018,04,11,05,43,9.70
2018,04,11,05,44,2.30
2018,04,11,05,45,6.40
2018,04,11,05,46,4.40
2018,04,11,05,47,5.00
2018,04,11,05,48,4.50
2018,04,11,05,49,4.40
2018,04,11,05,50,4.90
2018,04,11,05,51,4.10
2018,04,11,05,52,8.40
2018,04,11,05,53,9.30
2018,04,11,05,54,11.00
2018,04,11,05,55,5.80
2018,04,11,05,56,5.80
2018,04,11,05,57,5.50
2018,04,11,05,58,7.30
2018,04,11,05,59,4.90
2018,04,11,06,00,5.20
2018,04,11,06,01,8.60
2018,04,11,06,02,5.50
2018,04,11,06,03,5.60
2018,04,11,06,04,5.60
2018,04,11,06,05,4.30
2018,04,11,06,06,6.60
2018,04,11,06,07,6.80
2018,04,11,06,08,6.00
2018,04,11,06,09,6.20
2018,04,11,06,10,7.30
2018,04,11,06,11,7.30
2018,04,11,06,12,8.50
2018,04,11,06,13,8.90
2018,04,11,06,14,7.30
2018,04,11,06,15,6.20
2018,04,11,06,16,11.20
2018,04,11,06,17,8.10
2018,04,11,06,18,8.00
2018,04,11,06,19,8.90
2018,04,11,06,20,9.10
2018,04,11,06,21,9.50
2018,04,11,06,22,7.10
2018,04,11,06,23,8.40
2018,04,11,06,24,10.90
2018,04,11,06,25,8.40
2018,04,11,06,26,10.60
2018,04,11,06,27,6.80
2018,04,11,06,28,7.00
2018,04,11,06,29,8.20
2018,04,11,06,30,10.10
2018,04,11,06,31,7.40
2018,04,11,06,32,8.40
2018,04,11,06,33,11.30
2018,04,11,06,34,6.70
2018,04,11,06,35,7.30
2018,04,11,06,36,5.20
2018,04,11,06,37,9.20
2018,04,11,06,38,8.70
2018,04,11,06,39,5.20
2018,04,11,06,40,6.30
2018,04,11,06,41,8.00
2018,04,11,06,42,6.70
2018,04,11,06,43,8.60
2018,04,11,06,44,6.60
2018,04,11,06,45,6.30
2018,04,11,06,46,4.10
2018,04,11,06,47,8.80
2018,04,11,06,48,9.30
2018,04,11,06,49,9.80
2018,04,11,06,50,9.90
2018,04,11,06,51,9.70
2018,04,11,06,52,9.80
2018,04,11,06,53,9.80
2018,04,11,06,54,8.20
2018,04,11,06,55,10.90
2018,04,11,06,56,11.10
2018,04,11,06,57,13.90
2018,04,11,06,58,10.40
2018,04,11,06,59,9.60
2018,04,11,07,00,10.70
2018,04,11,07,01,8.50
2018,04,11,07,02,12.70
2018,04,11,07,03,7.90
2018,04,11,07,04,11.20
2018,04,11,07,05,13.80
2018,04,11,07,06,9.60
2018,04,11,07,07,14.00
2018,04,11,07,08,10.90
2018,04,11,07,09,14.20
2018,04,11,07,10,12.50
2018,04,11,07,11,14.40
2018,04,11,07,12,11.60
2018,04,11,07,13,14.40
2018,04,11,07,14,14.70
2018,04,11,07,15,12.80
2018,04,11,07,16,9.90
2018,04,11,07,17,19.30
2018,04,11,07,18,15.20
2018,04,11,07,19,12.50
2018,04,11,07,20,18.20
2018,04,11,07,21,18.80
2018,04,11,07,22,16.70
2018,04,11,07,23,13.40
2018,04,11,07,24,18.90
2018,04,11,07,25,21.60
2018,04,11,07,26,14.10
2018,04,11,07,27,19.80
2018,04,11,07,28,15.60
2018,04,11,07,29,21.40
2018,04,11,07,30,22.80
2018,04,11,07,31,18.70
2018,04,11,07,32,17.00
2018,04,11,07,33,23.80
2018,04,11,07,34,20.40
2018,04,11,07,35,21.20
2018,04,11,07,36,19.50
2018,04,11,07,37,15.80
2018,04,11,07,38,21.40
2018,04,11,07,39,24.10
2018,04,11,07,40,22.50
2018,04,11,07,41,17.00
2018,04,11,07,42,15.70
2018,04,11,07,43,17.40
2018,04,11,07,44,23.10
2018,04,11,07,45,25.40
2018,04,11,07,46,23.50
2018,04,11,07,47,23.60
2018,04,11,07,48,24.40
2018,04,11,07,49,24.60
2018,04,11,07,50,20.10
2018,04,11,07,51,19.90
2018,04,11,07,52,15.30
2018,04,11,07,53,9.90
2018,04,11,07,54,21.50
2018,04,11,07,55,22.20
2018,04,11,07,56,19.10
2018,04,11,07,57,19.10
2018,04,11,07,58,16.00
2018,04,11,07,59,17.20
2018,04,11,08,00,15.60
2018,04,11,08,01,19.60
2018,04,11,08,02,19.20
2018,04,11,08,03,17.60
2018,04,11,08,04,23.20
2018,04,11,08,05,18.90
2018,04,11,08,06,16.90
2018,04,11,08,07,16.50
2018,04,11,08,08,17.40
2018,04,11,08,09,24.90
2018,04,11,08,10,17.10
2018,04,11,08,11,21.90
2018,04,11,08,12,18.20
2018,04,11,08,13,24.90
2018,04,11,08,14,15.70
2018,04,11,08,15,19.30
2018,04,11,08,16,12.20
2018,04,11,08,17,20.90
2018,04,11,08,18,18.00
2018,04,11,08,19,15.20
2018,04,11,08,20,21.90
2018,04,11,08,21,18.80
2018,04,11,08,22,21.90
2018,04,11,08,23,23.10
2018,04,11,08,24,19.40
2018,04,11,08,25,20.90
2018,04,11,08,26,16.80
2018,04,11,08,27,19.70
2018,04,11,08,28,16.00
2018,04,11,08,29,18.50
2018,04,11,08,30,15.90
2018,04,11,08,31,22.90
2018,04,11,08,32,21.30
2018,04,11,08,33,17.60
2018,04,11,08,34,20.60
2018,04,11,08,35,17.80
2018,04,11,08,36,12.50
2018,04,11,08,37,19.70
2018,04,11,08,38,16.80
2018,04,11,08,39,24.00
2018,04,11,08,40,23.80
2018,04,11,08,41,16.50
2018,04,11,08,42,21.20
2018,04,11,08,43,24.80
2018,04,11,08,44,22.40
2018,04,11,08,45,26.10
2018,04,11,08,46,26.50
2018,04,11,08,47,20.90
2018,04,11,08,48,20.60
2018,04,11,08,49,22.10
2018,04,11,08,50,29.60
2018,04,11,08,51,23.20
2018,04,11,08,52,15.30
2018,04,11,08,53,21.30
2018,04,11,08,54,20.50
2018,04,11,08,55,25.40
2018,04,11,08,56,22.40
2018,04,11,08,57,20.10
2018,04,11,08,58,16.00
2018,04,11,08,59,20.70
2018,04,11,09,00,14.20
2018,04,11,09,01,26.40
2018,04,11,09,02,24.90
2018,04,11,09,03,21.10
2018,04,11,09,04,23.60
2018,04,11,09,05,22.00
2018,04,11,09,06,20.30
2018,04,11,09,07,22.10
2018,04,11,09,08,23.40
2018,04,11,09,09,17.60
2018,04,11,09,10,15.60
2018,04,11,09,11,24.40
2018,04,11,09,12,24.30
2018,04,11,09,13,26.30
2018,04,11,09,14,17.60
2018,04,11,09,15,17.80
2018,04,11,09,16,20.60
2018,04,11,09,17,15.80
2018,04,11,09,18,15.90
2018,04,11,09,19,21.40
2018,04,11,09,20,21.80
2018,04,11,09,21,15.90
2018,04,11,09,22,25.30
2018,04,11,09,23,16.70
2018,04,11,09,24,15.30
2018,04,11,09,25,24.60
2018,04,11,09,26,26.10
2018,04,11,09,27,25.50
2018,04,11,09,28,27.50
2018,04,11,09,29,27.80
2018,04,11,09,30,15.80
2018,04,11,09,31,19.30
2018,04,11,09,32,17.90
2018,04,11,09,33,17.90
2018,04,11,09,34,23.80
2018,04,11,09,35,21.70
2018,04,11,09,36,20.40
2018,04,11,09,37,26.70
2018,04,11,09,38,24.30
2018,04,11,09,39,24.00
2018,04,11,09,40,28.40
2018,04,11,09,41,20.00
2018,04,11,09,42,30.50
2018,04,11,09,43,29.00
2018,04,11,09,44,20.40
2018,04,11,09,45,27.70
2018,04,11,09,46,30.40
2018,04,11,09,47,28.80
2018,04,11,09,48,26.40
2018,04,11,09,49,21.40
2018,04,11,09,50,19.40
2018,04,11,09,51,23.40
2018,04,11,09,52,23.70
2018,04,11,09,53,26.90
2018,04,11,09,54,21.50
2018,04,11,09,55,24.10
2018,04,11,09,56,25.70
2018,04,11,09,57,25.10
2018,04,11,09,58,17.60
2018,04,11,09,59,15.40
2018,04,11,10,00,21.20
2018,04,11,10,01,26.70
2018,04,11,10,02,25.20
2018,04,11,10,03,29.90
2018,04,11,10,04,28.10
2018,04,11,10,05,24.30
2018,04,11,10,06,23.30
2018,04,11,10,07,28.80
2018,04,11,10,08,18.40
2018,04,11,10,09,24.80
2018,04,11,10,10,19.00
2018,04,11,10,11,13.20
2018,04,11,10,12,15.60
2018,04,11,10,13,23.50
2018,04,11,10,14,24.30
2018,04,11,10,15,25.30
2018,04,11,10,16,22.70
2018,04,11,10,17,19.20
2018,04,11,10,18,22.10
2018,04,11,10,19,20.90
2018,04,11,10,20,16.20
2018,04,11,10,21,23.40
2018,04,11,10,22,22.40
2018,04,11,10,23,15.20
2018,04,11,10,24,22.20
2018,04,11,10,25,20.10
2018,04,11,10,26,15.00
2018,04,11,10,27,27.00
2018,04,11,10,28,19.00
2018,04,11,10,29,18.40
2018,04,11,10,30,23.70
2018,04,11,10,31,20.20
2018,04,11,10,32,20.70
2018,04,11,10,33,19.70
2018,04,11,10,34,17.30
2018,04,11,10,35,24.50
2018,04,11,10,36,22.90
2018,04,11,10,37,21.10
2018,04,11,10,38,26.20
2018,04,11,10,39,30.40
2018,04,11,10,40,21.00
2018,04,11,10,41,19.40
2018,04,11,10,42,24.80
2018,04,11,10,43,16.00
2018,04,11,10,44,28.30
2018,04,11,10,45,29.40
2018,04,11,10,46,30.70
2018,04,11,10,47,14.30
2018,04,11,10,48,18.70
2018,04,11,10,49,30.10
2018,04,11,10,50,29.50
2018,04,11,10,51,23.60
2018,04,11,10,52,32.90
2018,04,11,10,53,23.80
2018,04,11,10,54,21.90
2018,04,11,10,55,30.60
2018,04,11,10,56,28.60
2018,04,11,10,57,17.90
2018,04,11,10,58,24.60
2018,04,11,10,59,25.80
2018,04,11,11,00,27.10
2018,04,11,11,01,27.60
2018,04,11,11,02,29.80
2018,04,11,11,03,30.20
2018,04,11,11,04,30.00
2018,04,11,11,05,24.60
2018,04,11,11,06,21.20
2018,04,11,11,07,22.10
2018,04,11,11,08,31.50
2018,04,11,11,09,32.30
2018,04,11,11,10,30.80
2018,04,11,11,11,21.90
2018,04,11,11,12,27.60
2018,04,11,11,13,23.20
2018,04,11,11,14,16.70
2018,04,11,11,15,35.30
2018,04,11,11,16,32.40
2018,04,11,11,17,19.40
2018,04,11,11,18,25.60
2018,04,11,11,19,31.90
2018,04,11,11,20,20.10
2018,04,11,11,21,27.90
2018,04,11,11,22,30.10
2018,04,11,11,23,29.30
2018,04,11,11,24,31.80
2018,04,11,11,25,28.30
2018,04,11,11,26,25.60
2018,04,11,11,27,31.90
2018,04,11,11,28,36.30
2018,04,11,11,29,20.60
2018,04,11,11,30,32.00
2018,04,11,11,31,22.60
2018,04,11,11,32,28.60
2018,04,11,11,33,26.10
2018,04,11,11,34,31.00
2018,04,11,11,35,16.50
2018,04,11,11,36,23.10
2018,04,11,11,37,27.40
2018,04,11,11,38,20.60
2018,04,11,11,39,28.20
2018,04,11,11,40,24.30
2018,04,11,11,41,17.90
2018,04,11,11,42,24.90
2018,04,11,11,43,31.60
2018,04,11,11,44,18.50
2018,04,11,11,45,19.60
2018,04,11,11,46,29.20
2018,04,11,11,47,23.90
2018,04,11,11,48,18.30
2018,04,11,11,49,20.60
2018,04,11,11,50,27.60
2018,04,11,11,51,30.30
2018,04,11,11,52,30.30
2018,04,11,11,53,29.90
2018,04,11,11,54,29.30
2018,04,11,11,55,28.70
2018,04,11,11,56,27.10
2018,04,11,11,57,32.40
2018,04,11,11,58,25.60
2018,04,11,11,59,26.60
2018,04,11,12,00,22.90
2018,04,11,12,01,21.50
2018,04,11,12,02,25.60
2018,04,11,12,03,35.90
2018,04,11,12,04,28.00
2018,04,11,12,05,32.70
2018,04,11,12,06,30.40
2018,04,11,12,07,36.90
2018,04,11,12,08,21.70
2018,04,11,12,09,40.00
2018,04,11,12,10,43.30
2018,04,11,12,11,31.30
2018,04,11,12,12,35.70
2018,04,11,12,13,29.30
2018,04,11,12,14,27.80
2018,04,11,12,15,37.20
2018,04,11,12,16,36.40
2018,04,11,12,17,33.70
2018,04,11,12,18,31.90
2018,04,11,12,19,31.80
2018,04,11,12,20,34.00
2018,04,11,12,21,28.70
2018,04,11,12,22,35.60
2018,04,11,12,23,35.70
2018,04,11,12,24,32.80
2018,04,11,12,25,26.20
2018,04,11,12,26,31.70
2018,04,11,12,27,27.70
2018,04,11,12,28,28.90
2018,04,11,12,29,20.40
2018,04,11,12,30,28.50
2018,04,11,12,31,36.30
2018,04,11,12,32,30.30
2018,04,11,12,33,38.30
2018,04,11,12,34,39.60
2018,04,11,12,35,37.10
2018,04,11,12,36,33.90
2018,04,11,12,37,45.10
2018,04,11,12,38,29.00
2018,04,11,12,39,31.10
2018,04,11,12,40,35.90
2018,04,11,12,41,32.90
2018,04,11,12,42,28.90
2018,04,11,12,43,41.10
2018,04,11,12,44,40.50
2018,04,11,12,45,34.50
2018,04,11,12,46,35.10
2018,04,11,12,47,25.60
2018,04,11,12,48,35.00
2018,04,11,12,49,33.00
2018,04,11,12,50,23.90
2018,04,11,12,51,25.40
2018,04,11,12,52,30.20
2018,04,11,12,53,28.00
2018,04,11,12,54,34.20
2018,04,11,12,55,28.70
2018,04,11,12,56,38.20
2018,04,11,12,57,28.30
2018,04,11,12,58,34.30
2018,04,11,12,59,28.50
2018,04,11,13,00,31.80
2018,04,11,13,01,27.00
2018,04,11,13,02,34.50
2018,04,11,13,03,27.80
2018,04,11,13,04,18.80
2018,04,11,13,05,28.50
2018,04,11,13,06,37.50
2018,04,11,13,07,27.20
2018,04,11,13,08,26.90
2018,04,11,13,09,31.60
2018,04,11,13,10,23.40
2018,04,11,13,11,28.90
2018,04,11,13,12,31.00
2018,04,11,13,13,36.50
2018,04,11,13,14,36.70
2018,04,11,13,15,27.20
2018,04,11,13,16,24.10
2018,04,11,13,17,40.10
2018,04,11,13,18,33.60
2018,04,11,13,19,32.50
2018,04,11,13,20,29.00
2018,04,11,13,21,29.30
2018,04,11,13,22,31.50
2018,04,11,13,23,40.40
2018,04,11,13,24,37.30
2018,04,11,13,25,32.20
2018,04,11,13,26,25.00
2018,04,11,13,27,36.00
2018,04,11,13,28,30.90
2018,04,11,13,29,39.30
2018,04,11,13,30,29.30
2018,04,11,13,31,20.40
2018,04,11,13,32,28.00
2018,04,11,13,33,39.60
2018,04,11,13,34,29.50
2018,04,11,13,35,27.60
2018,04,11,13,36,36.20
2018,04,11,13,37,29.10
2018,04,11,13,38,37.60
2018,04,11,13,39,30.60
2018,04,11,13,40,37.80
2018,04,11,13,41,28.80
2018,04,11,13,42,29.60
2018,04,11,13,43,36.80
2018,04,11,13,44,33.60
2018,04,11,13,45,29.60
2018,04,11,13,46,30.10
2018,04,11,13,47,39.00
2018,04,11,13,48,46.90
2018,04,11,13,49,49.60
2018,04,11,13,50,34.80
2018,04,11,13,51,27.90
2018,04,11,13,52,32.60
2018,04,11,13,53,30.60
2018,04,11,13,54,41.20
2018,04,11,13,55,31.90
2018,04,11,13,56,26.80
2018,04,11,13,57,17.30
2018,04,11,13,58,20.40
2018,04,11,13,59,24.50
2018,04,11,14,00,31.70
2018,04,11,14,01,33.10
2018,04,11,14,02,31.50
2018,04,11,14,03,21.00
2018,04,11,14,04,19.80
2018,04,11,14,05,29.00
2018,04,11,14,06,23.50
2018,04,11,14,07,28.80
2018,04,11,14,08,30.90
2018,04,11,14,09,37.50
2018,04,11,14,10,29.30
2018,04,11,14,11,25.40
2018,04,11,14,12,28.70
2018,04,11,14,13,28.30
2018,04,11,14,14,26.40
2018,04,11,14,15,12.80
2018,04,11,14,16,22.90
2018,04,11,14,17,29.10
2018,04,11,14,18,26.60
2018,04,11,14,19,34.60
2018,04,11,14,20,29.30
2018,04,11,14,21,23.00
2018,04,11,14,22,28.80
2018,04,11,14,23,22.30
2018,04,11,14,24,20.50
2018,04,11,14,25,18.10
2018,04,11,14,26,16.80
2018,04,11,14,27,41.20
2018,04,11,14,28,34.00
2018,04,11,14,29,21.70
2018,04,11,14,30,17.40
2018,04,11,14,31,18.50
2018,04,11,14,32,23.10
2018,04,11,14,33,29.20
2018,04,11,14,34,24.20
2018,04,11,14,35,21.30
2018,04,11,14,36,17.00
2018,04,11,14,37,25.80
2018,04,11,14,38,24.60
2018,04,11,14,39,29.40
2018,04,11,14,40,17.90
2018,04,11,14,41,16.10
2018,04,11,14,42,29.50
2018,04,11,14,43,24.20
2018,04,11,14,44,29.80
2018,04,11,14,45,20.50
2018,04,11,14,46,26.90
2018,04,11,14,47,24.50
2018,04,11,14,48,23.10
2018,04,11,14,49,25.40
2018,04,11,14,50,30.70
2018,04,11,14,51,31.30
2018,04,11,14,52,21.60
2018,04,11,14,53,15.70
2018,04,11,14,54,30.00
2018,04,11,14,55,23.50
2018,04,11,14,56,20.30
2018,04,11,14,57,23.30
2018,04,11,14,58,22.60
2018,04,11,14,59,38.80
2018,04,11,15,00,21.20
2018,04,11,15,01,14.30
2018,04,11,15,02,9.80
2018,04,11,15,03,12.10
2018,04,11,15,04,20.90
2018,04,11,15,05,35.10
2018,04,11,15,06,36.80
2018,04,11,15,07,34.50
2018,04,11,15,08,35.10
2018,04,11,15,09,23.10
2018,04,11,15,10,15.10
2018,04,11,15,11,15.30
2018,04,11,15,12,34.50
2018,04,11,15,13,23.40
2018,04,11,15,14,11.30
2018,04,11,15,15,15.80
2018,04,11,15,16,12.10
2018,04,11,15,17,20.80
2018,04,11,15,18,16.00
2018,04,11,15,19,13.30
2018,04,11,15,20,17.70
2018,04,11,15,21,21.80
2018,04,11,15,22,27.20
2018,04,11,15,23,30.80
2018,04,11,15,24,28.20
2018,04,11,15,25,28.10
2018,04,11,15,26,30.50
2018,04,11,15,27,23.50
2018,04,11,15,28,23.00
2018,04,11,15,29,23.80
2018,04,11,15,30,22.40
2018,04,11,15,31,26.20
2018,04,11,15,32,21.20
2018,04,11,15,33,11.10
2018,04,11,15,34,25.40
2018,04,11,15,35,25.40
2018,04,11,15,36,18.50
2018,04,11,15,37,23.70
2018,04,11,15,38,23.90
2018,04,11,15,39,26.90
2018,04,11,15,40,28.80
2018,04,11,15,41,26.00
2018,04,11,15,42,25.90
2018,04,11,15,43,27.30
2018,04,11,15,44,35.70
2018,04,11,15,45,26.80
2018,04,11,15,46,27.50
2018,04,11,15,47,18.90
2018,04,11,15,48,24.90
2018,04,11,15,49,24.10
2018,04,11,15,50,25.00
2018,04,11,15,51,17.80
2018,04,11,15,52,17.70
2018,04,11,15,53,23.90
2018,04,11,15,54,25.00
2018,04,11,15,55,31.40
2018,04,11,15,56,27.40
2018,04,11,15,57,22.60
2018,04,11,15,58,24.90
2018,04,11,15,59,25.30
2018,04,11,16,00,32.80
2018,04,11,16,01,35.60
2018,04,11,16,02,20.10
2018,04,11,16,03,18.60
2018,04,11,16,04,26.10
2018,04,11,16,05,26.60
2018,04,11,16,06,25.30
2018,04,11,16,07,29.10
2018,04,11,16,08,19.70
2018,04,11,16,09,20.40
2018,04,11,16,10,16.30
2018,04,11,16,11,24.40
2018,04,11,16,12,30.50
2018,04,11,16,13,22.50
2018,04,11,16,14,24.10
2018,04,11,16,15,20.40
2018,04,11,16,16,24.80
2018,04,11,16,17,23.10
2018,04,11,16,18,25.60
2018,04,11,16,19,25.80
2018,04,11,16,20,16.90
2018,04,11,16,21,22.20
2018,04,11,16,22,26.90
2018,04,11,16,23,20.50
2018,04,11,16,24,23.00
2018,04,11,16,25,22.70
2018,04,11,16,26,24.00
2018,04,11,16,27,22.90
2018,04,11,16,28,33.30
2018,04,11,16,29,24.40
2018,04,11,16,30,7.90
2018,04,11,16,31,17.20
2018,04,11,16,32,20.40
2018,04,11,16,33,21.40
2018,04,11,16,34,23.40
2018,04,11,16,35,37.50
2018,04,11,16,36,26.00
2018,04,11,16,37,30.30
2018,04,11,16,38,24.40
2018,04,11,16,39,21.50
2018,04,11,16,40,26.20
2018,04,11,16,41,29.20
2018,04,11,16,42,29.20
2018,04,11,16,43,26.00
2018,04,11,16,44,22.50
2018,04,11,16,45,19.70
2018,04,11,16,46,30.50
2018,04,11,16,47,30.50
2018,04,11,16,48,23.50
2018,04,11,16,49,24.60
2018,04,11,16,50,27.80
2018,04,11,16,51,28.80
2018,04,11,16,52,28.10
2018,04,11,16,53,26.10
2018,04,11,16,54,18.90
2018,04,11,16,55,17.50
2018,04,11,16,56,25.80
2018,04,11,16,57,18.10
2018,04,11,16,58,34.40
2018,04,11,16,59,37.00
2018,04,11,17,00,21.50
2018,04,11,17,01,13.00
2018,04,11,17,02,13.40
2018,04,11,17,03,18.10
2018,04,11,17,04,25.00
2018,04,11,17,05,18.70
2018,04,11,17,06,12.00
2018,04,11,17,07,16.70
2018,04,11,17,08,18.50
2018,04,11,17,09,19.90
2018,04,11,17,10,18.60
2018,04,11,17,11,22.00
2018,04,11,17,12,16.30
2018,04,11,17,13,17.20
2018,04,11,17,14,14.80
2018,04,11,17,15,14.70
2018,04,11,17,16,14.10
2018,04,11,17,17,10.50
2018,04,11,17,18,15.40
2018,04,11,17,19,22.30
2018,04,11,17,20,12.70
2018,04,11,17,21,18.40
2018,04,11,17,22,18.30
2018,04,11,17,23,15.30
2018,04,11,17,24,17.00
2018,04,11,17,25,12.10
2018,04,11,17,26,5.20
2018,04,11,17,27,13.50
2018,04,11,17,28,16.30
2018,04,11,17,29,14.60
2018,04,11,17,30,14.80
2018,04,11,17,31,10.90
2018,04,11,17,32,8.10
2018,04,11,17,33,14.20
2018,04,11,17,34,14.10
2018,04,11,17,35,18.00
2018,04,11,17,36,15.40
2018,04,11,17,37,15.00